Location: Aufkirchen
(47.9603°N, 11.3653°E)
Time: 10:13:49
(UTC+01:00)

Tiros 1 - Pass Details

Date: 02 December 2020
Orbit: 630 x 663 km, 48.4° (Epoch: 21 January)

Event Time Altitude Azimuth Distance (km) Brightness Sun altitude
Rises 19:10:58 0° 285° (WNW) 2,990 11.7 -27.2°
Reaches altitude 10° 19:13:22 10° 281° (W) 2,073 10.7 -27.6°
Enters shadow 19:17:32 49° 227° (SW) 845 7.9 -28.3°
Maximum altitude 19:18:00 51° 206° (SSW) 822 - -28.4°
Drops below altitude 10° 19:22:34 10° 131° (SE) 2,047 - -29.2°
Sets 19:24:56 0° 126° (SE) 2,950 - -29.6°
